星链-3594 (STARLINK-3594 )

导读

STARLINK-3594是美国于2022年3月3日发射的星链卫星,隶属于SpaceX公司的星链项目,该项目旨在构建全球卫星互联网星座,为全球偏远地区、海洋上空等网络覆盖薄弱区域提供高速互联网服务。作为星链星座的组成部分,该卫星承担着增强星座网络覆盖、提升通信容量的作用,推动全球互联网络建设进程。

基本信息
目录编号:
51895
目录名称:
STARLINK-3594
国际标识:
2022-022AV
轨道中心:
EARTH
卫星名称:
星链-3594
卫星全名:
星链-3594 (STARLINK-3594 )
卫星状态:
在轨 (已飞行1646 天)
发射日期:
2022-03-03 UTC
国别 :
美国 (US)
星等 :
--
轨道信息
数据来源 国际轨道数据
星历时间: 2026-09-03T18:31:51+0800
17小时前
查看轨道信息
半长轴: 6840.884km
偏心率: 0.0001003
轨道倾角: 53.159°
近地点辐角 90.045°
升交点赤经 267.817°
平近点角 270.066°
近地点: 462.06km
远地点: 463.434km
周期: 93.849分钟
每日圈数: 15.343854
详细信息
固有亮度:
5
最大亮度:
2.5
卫星平台:
Starlink v1.5
覆盖范围:
全球
运营商:
太空探索技术公司
运营商所在国:
美国
制造商(研发单位):
太空探索技术公司
制造商所在国:
美国
使用方式:
暂无
卫星简介
星链(Starlink)计划是由太空探索技术公司(SpaceX)提出的一个巨型低轨卫星互联网星座项目,计划在2019年至2024年间在太空搭建由约1.2万颗卫星组成的“星链”网络,其中1584颗将部署在地球上空550千米处的近地轨道,并从2020年开始工作。该卫星仍在工作。
2D轨道图
3D轨道图
轨道高度分析图
轨道倾角分析图
轨道综合分析图
查看轨道综合分析图
交会数据列表
事件ID 空间交会对象 最接近时刻(TCA) 交会距离 交会风险概率(CRP) 交会风险指数(CRI) 操作
CDM_260903-235505-189505-397621
2026-09-03T
23:55:12+0000
0.211 km
中距离
7.040482E-4 高风险 0.92
CDM_260904-232205-189505-397621
2026-09-04T
23:22:08+0000
0.473 km
远距离
2.032475E-4 高风险 0.81
CDM_260905-005505-189505-397621
2026-09-05T
00:55:56+0000
0.504 km
远距离
1.76464E-4 高风险 0.8
CDM_260904-203805-189506-444721
2026-09-04T
20:38:09+0000
0.682 km
远距离
5.750884E-5 中风险 0.7
CDM_260903-222105-189505-397621
2026-09-03T
22:21:24+0000
0.887 km
远距离
3.480266E-5 中风险 0.66
CDM_260904-012905-189505-397621
2026-09-04T
01:29:00+0000
1.030 km
极远距离
2.095295E-5 中风险 0.61
CDM_260904-214805-189505-397621
2026-09-04T
21:48:21+0000
1.308 km
极远距离
9.113138E-6 低风险 0.54
CDM_260905-022905-189505-397621
2026-09-05T
02:29:44+0000
1.585 km
极远距离
4.827266E-6 低风险 0.49
CDM_260905-051405-189506-444721
2026-09-05T
05:14:00+0000
1.489 km
极远距离
4.264096E-6 低风险 0.48
CDM_260904-030205-189505-397621
2026-09-04T
03:02:48+0000
1.784 km
极远距离
3.381191E-6 低风险 0.46